Погода в Кампус-дус-Гойтаказис

Бразилия     21°45′16″S   41°19′27″W
темп.,
°C
ветер,
м/с
пор.,
м/с
влажн.,
%
обл.,
%
осадки,
мм/ч
давл.,
гПа
погр.,
м
26 февраля, пт
пт2600:00+22юз229690 0.0 101230
03:00+22ююз229795 0.0 101130
06:00+22юз239889 0.0 101164
09:00+26ссз228181 0.5 1013499
12:00+28всв447590 11.1 1013430
15:00+27всв578195 14.4 1011402
18:00+24всв4990100 5.1 1012294
21:00+23всв3893100 6.1 1014309
27 февраля, сб
сб2700:00+23всв3894100 0.0 1014256
03:00+22с2293100 0.0 101370
06:00+22сз1292100 0.0 101428
09:00+24сз1187100 0.0 1016148
12:00+28ссв2367100 0.0 1015951
15:00+27всв6672100 0.1 1013518
18:00+24всв4887100 0.0 1014369
21:00+24всв3991100 0.0 1015339
28 февраля, вс
вс2800:00+23всв3794100 0.1 1015223
03:00+23всв3594100 0.2 1014140
06:00+22св3594100 0.0 1015146
09:00+27св4576100 0.0 1016887
12:00+29св456368 0.0 10151222
15:00+28всв566567 0.0 1013883
18:00+25в338370 0.0 101386
21:00+23в358886 0.2 1015144
1 марта, пн
пн100:00+23св3992100 3.0 1014254
03:00+22св229496 3.1 101338
06:00+22ссз12942 0.1 101423
09:00+26ссв35761 0.1 1015704
12:00+29св55663 0.0 10151197
15:00+28всв577115 0.1 1012768
18:00+24всв49860 0.0 1012341
21:00+23всв39930 0.0 1014257
2 марта, вт
вт200:00+23св37940 0.0 1014183
03:00+22ссв239549 0.1 101468
06:00+21ссв359630 0.0 1015138
09:00+26с357434 0.0 1016605
12:00+30ссв455787 0.0 10161326
15:00+28всв677155 0.0 1014621
18:00+24всв5108699 0.0 1013467
21:00+23св389293 0.0 1015244